Showing default

HODOYOSHI 3, 40015

Orbit data source: Space-Track

HODOYOSHI 3, 40015 is a payload satellite owned by Tokyo (JP) in SSO that was launched on Thu, 19 Jun 2014 UTC via a DNEPR launch vehicle from the Orenburg, Russia (OREN). Payload-class satellites include a variety of spacecraft equipped with specific instruments for various scientific and technological missions. These include communications satellites like Starlink; space stations such as the ISS; scientific satellites like the Hubble; Earth observation satellites from companies like Planet Labs, Umbra, and HawkEye 360; GPS; miniature CubeSats for education and research; and military/defense satellites.

Loading next visibility...
Identifier
40015, 2014-033F
Orbit
SSO
Country
Flag of JPJP / JPN
Related business
Manufacturer
AXELSPACE
Mission
Operational Commercial Imaging
Bus & Motor
HODOYOSHI, Unknown motor
Mass
58 kg wet, 58 kg dry
Launch date (UTC)
2014-06-19 (12 years ago)
Launch vehicle
DNEPR
Launch site
Orenburg, Russia (OREN)
Object type
Payload
Rocket body
Debris
Shape & HBR
Box + 2 Pan, 0.8 m
Radar Cross Section
0.614 m², Medium (>0.1 m² and < 1m²)

Expand to show TLE details & history
Last TLE update: 2 days ago

TLE from 2 days ago
0 HODOYOSHI 3
1 40015U 14033F   26171.41846669  .00000763  00000-0  93914-4 0  9998
2 40015  97.6421 334.3289 0032388 346.5693  13.4657 14.85393755648108
Epoch: 2026-06-20T10:02Z
TLE epoch observation values (Epoch: 2026-06-20T10:02:35.522Z)
Latitude
-0.00001°
Longitude
-84.95248°
Altitude
593.368 km
Speed
7.575 km/s
True Right ascension
22h 17m 18s
True Declination
0° 00' 00"
Sunlit
Object was in daylight at epoch
Visualization orbit readout
Latitude
Unknown
Longitude
Unknown
Altitude
Unknown
Speed
Unknown
Apparent Right ascension
Unknown
Apparent Declination
Unknown
Sunlit
N/A
Visualization observer readout
Local Sidereal Time
21:42:50
Azimuth
Unknown
Elevation
Unknown
Doppler factor
Unknown
Orbital elements
Apogee altitude
632.004 km
Perigee altitude
586.741 km
Semi-major axis
6,987.509 km
Eccentricity
0.00324
Inclination
97.6421°
RAAN
334.3289°
Arg. of periapsis
346.5693°
True anomaly
13.55247°
Mean anomaly
13.4657°
Eccentric anomaly
13.50905°
Mean motion
3.71586 °/min
Orbital period
96.88 mins
BSTAR
0.000093914
Loading maneuver chart data...
Computing Atmospheric mass density...
Loading historical data...
Loading historical data...
Loading historical data...
Loading historical data...
Loading historical data...
Loading historical data...
Loading historical data...

Documentation

Showing up to 5 results
|